Year,Month,Day,Hour,Minute,Value (Times are PST for temperature in C)
2013,05,04,00,00,11.40
2013,05,04,00,01,11.50
2013,05,04,00,02,11.50
2013,05,04,00,03,11.60
2013,05,04,00,04,11.70
2013,05,04,00,05,11.70
2013,05,04,00,06,11.70
2013,05,04,00,07,11.80
2013,05,04,00,08,11.70
2013,05,04,00,09,11.70
2013,05,04,00,10,11.70
2013,05,04,00,11,11.80
2013,05,04,00,12,11.80
2013,05,04,00,13,11.90
2013,05,04,00,14,12.00
2013,05,04,00,15,12.10
2013,05,04,00,16,12.20
2013,05,04,00,17,12.30
2013,05,04,00,18,12.50
2013,05,04,00,19,12.60
2013,05,04,00,20,12.70
2013,05,04,00,21,12.80
2013,05,04,00,22,12.90
2013,05,04,00,23,13.00
2013,05,04,00,24,13.10
2013,05,04,00,25,13.10
2013,05,04,00,26,13.20
2013,05,04,00,27,13.30
2013,05,04,00,28,13.30
2013,05,04,00,29,13.30
2013,05,04,00,30,13.30
2013,05,04,00,31,13.30
2013,05,04,00,32,13.30
2013,05,04,00,33,13.30
2013,05,04,00,34,13.30
2013,05,04,00,35,13.20
2013,05,04,00,36,13.10
2013,05,04,00,37,13.00
2013,05,04,00,38,12.80
2013,05,04,00,39,12.70
2013,05,04,00,40,12.60
2013,05,04,00,41,12.50
2013,05,04,00,42,12.40
2013,05,04,00,43,12.30
2013,05,04,00,44,12.20
2013,05,04,00,45,12.10
2013,05,04,00,46,11.90
2013,05,04,00,47,11.80
2013,05,04,00,48,11.60
2013,05,04,00,49,11.50
2013,05,04,00,50,11.50
2013,05,04,00,51,11.40
2013,05,04,00,52,11.40
2013,05,04,00,53,11.30
2013,05,04,00,54,11.30
2013,05,04,00,55,11.20
2013,05,04,00,56,11.20
2013,05,04,00,57,11.10
2013,05,04,00,58,11.00
2013,05,04,00,59,11.00
2013,05,04,01,00,10.90
2013,05,04,01,01,10.90
2013,05,04,01,02,10.80
2013,05,04,01,03,10.70
2013,05,04,01,04,10.70
2013,05,04,01,05,10.60
2013,05,04,01,06,10.50
2013,05,04,01,07,10.50
2013,05,04,01,08,10.40
2013,05,04,01,09,10.40
2013,05,04,01,10,10.30
2013,05,04,01,11,10.30
2013,05,04,01,12,10.30
2013,05,04,01,13,10.30
2013,05,04,01,14,10.40
2013,05,04,01,15,10.40
2013,05,04,01,16,10.50
2013,05,04,01,17,10.50
2013,05,04,01,18,10.50
2013,05,04,01,19,10.60
2013,05,04,01,20,10.70
2013,05,04,01,21,10.70
2013,05,04,01,22,10.80
2013,05,04,01,23,10.80
2013,05,04,01,24,10.90
2013,05,04,01,25,10.90
2013,05,04,01,26,11.00
2013,05,04,01,27,11.00
2013,05,04,01,28,11.10
2013,05,04,01,29,11.10
2013,05,04,01,30,11.20
2013,05,04,01,31,11.20
2013,05,04,01,32,11.20
2013,05,04,01,33,11.30
2013,05,04,01,34,11.40
2013,05,04,01,35,11.50
2013,05,04,01,36,11.60
2013,05,04,01,37,11.70
2013,05,04,01,38,11.80
2013,05,04,01,39,11.90
2013,05,04,01,40,12.00
2013,05,04,01,41,12.00
2013,05,04,01,42,12.00
2013,05,04,01,43,12.00
2013,05,04,01,44,11.90
2013,05,04,01,45,11.90
2013,05,04,01,46,11.80
2013,05,04,01,47,11.70
2013,05,04,01,48,11.60
2013,05,04,01,49,11.50
2013,05,04,01,50,11.40
2013,05,04,01,51,11.30
2013,05,04,01,52,11.20
2013,05,04,01,53,11.20
2013,05,04,01,54,11.20
2013,05,04,01,55,11.10
2013,05,04,01,56,11.00
2013,05,04,01,57,11.00
2013,05,04,01,58,10.90
2013,05,04,01,59,10.70
2013,05,04,02,00,10.70
2013,05,04,02,01,10.60
2013,05,04,02,02,10.50
2013,05,04,02,03,10.50
2013,05,04,02,04,10.40
2013,05,04,02,05,10.50
2013,05,04,02,06,10.60
2013,05,04,02,07,10.70
2013,05,04,02,08,10.70
2013,05,04,02,09,10.60
2013,05,04,02,10,10.60
2013,05,04,02,11,10.50
2013,05,04,02,12,10.40
2013,05,04,02,13,10.30
2013,05,04,02,14,10.20
2013,05,04,02,15,10.20
2013,05,04,02,16,10.20
2013,05,04,02,17,10.20
2013,05,04,02,18,10.20
2013,05,04,02,19,10.20
2013,05,04,02,20,10.10
2013,05,04,02,21,10.10
2013,05,04,02,22,10.00
2013,05,04,02,23,10.10
2013,05,04,02,24,10.20
2013,05,04,02,25,10.20
2013,05,04,02,26,10.30
2013,05,04,02,27,10.40
2013,05,04,02,28,10.40
2013,05,04,02,29,10.40
2013,05,04,02,30,10.40
2013,05,04,02,31,10.40
2013,05,04,02,32,10.40
2013,05,04,02,33,10.50
2013,05,04,02,34,10.50
2013,05,04,02,35,10.50
2013,05,04,02,36,10.60
2013,05,04,02,37,10.60
2013,05,04,02,38,10.60
2013,05,04,02,39,10.60
2013,05,04,02,40,10.60
2013,05,04,02,41,10.60
2013,05,04,02,42,10.60
2013,05,04,02,43,10.60
2013,05,04,02,44,10.70
2013,05,04,02,45,10.70
2013,05,04,02,46,10.70
2013,05,04,02,47,10.60
2013,05,04,02,48,10.60
2013,05,04,02,49,10.50
2013,05,04,02,50,10.40
2013,05,04,02,51,10.30
2013,05,04,02,52,10.20
2013,05,04,02,53,10.10
2013,05,04,02,54,10.00
2013,05,04,02,55,9.90
2013,05,04,02,56,9.80
2013,05,04,02,57,9.70
2013,05,04,02,58,9.60
2013,05,04,02,59,9.50
2013,05,04,03,00,9.50
2013,05,04,03,01,9.40
2013,05,04,03,02,9.30
2013,05,04,03,03,9.20
2013,05,04,03,04,9.10
2013,05,04,03,05,9.10
2013,05,04,03,06,9.00
2013,05,04,03,07,9.10
2013,05,04,03,08,9.20
2013,05,04,03,09,9.40
2013,05,04,03,10,9.60
2013,05,04,03,11,9.90
2013,05,04,03,12,10.20
2013,05,04,03,13,10.60
2013,05,04,03,14,10.90
2013,05,04,03,15,11.10
2013,05,04,03,16,11.30
2013,05,04,03,17,11.50
2013,05,04,03,18,11.60
2013,05,04,03,19,11.80
2013,05,04,03,20,11.80
2013,05,04,03,21,11.90
2013,05,04,03,22,12.00
2013,05,04,03,23,12.00
2013,05,04,03,24,12.10
2013,05,04,03,25,12.10
2013,05,04,03,26,12.10
2013,05,04,03,27,12.20
2013,05,04,03,28,12.20
2013,05,04,03,29,12.20
2013,05,04,03,30,12.20
2013,05,04,03,31,12.20
2013,05,04,03,32,12.20
2013,05,04,03,33,12.20
2013,05,04,03,34,12.20
2013,05,04,03,35,12.20
2013,05,04,03,36,12.20
2013,05,04,03,37,12.20
2013,05,04,03,38,12.20
2013,05,04,03,39,12.20
2013,05,04,03,40,12.20
2013,05,04,03,41,12.20
2013,05,04,03,42,12.10
2013,05,04,03,43,12.10
2013,05,04,03,44,12.10
2013,05,04,03,45,12.10
2013,05,04,03,46,12.00
2013,05,04,03,47,12.00
2013,05,04,03,48,11.90
2013,05,04,03,49,11.90
2013,05,04,03,50,11.90
2013,05,04,03,51,11.90
2013,05,04,03,52,11.80
2013,05,04,03,53,11.80
2013,05,04,03,54,11.80
2013,05,04,03,55,11.80
2013,05,04,03,56,11.80
2013,05,04,03,57,11.80
2013,05,04,03,58,11.70
2013,05,04,03,59,11.70
2013,05,04,04,00,11.70
2013,05,04,04,01,11.60
2013,05,04,04,02,11.60
2013,05,04,04,03,11.50
2013,05,04,04,04,11.50
2013,05,04,04,05,11.40
2013,05,04,04,06,11.30
2013,05,04,04,07,11.30
2013,05,04,04,08,11.30
2013,05,04,04,09,11.30
2013,05,04,04,10,11.20
2013,05,04,04,11,11.20
2013,05,04,04,12,11.20
2013,05,04,04,13,11.10
2013,05,04,04,14,11.00
2013,05,04,04,15,11.00
2013,05,04,04,16,10.90
2013,05,04,04,17,10.90
2013,05,04,04,18,10.90
2013,05,04,04,19,10.90
2013,05,04,04,20,10.80
2013,05,04,04,21,10.80
2013,05,04,04,22,10.70
2013,05,04,04,23,10.70
2013,05,04,04,24,10.60
2013,05,04,04,25,10.50
2013,05,04,04,26,10.40
2013,05,04,04,27,10.40
2013,05,04,04,28,10.30
2013,05,04,04,29,10.30
2013,05,04,04,30,10.30
2013,05,04,04,31,10.30
2013,05,04,04,32,10.30
2013,05,04,04,33,10.40
2013,05,04,04,34,10.40
2013,05,04,04,35,10.40
2013,05,04,04,36,10.50
2013,05,04,04,37,10.50
2013,05,04,04,38,10.50
2013,05,04,04,39,10.60
2013,05,04,04,40,10.60
2013,05,04,04,41,10.60
2013,05,04,04,42,10.60
2013,05,04,04,43,10.60
2013,05,04,04,44,10.50
2013,05,04,04,45,10.50
2013,05,04,04,46,10.50
2013,05,04,04,47,10.50
2013,05,04,04,48,10.50
2013,05,04,04,49,10.40
2013,05,04,04,50,10.40
2013,05,04,04,51,10.30
2013,05,04,04,52,10.10
2013,05,04,04,53,9.90
2013,05,04,04,54,9.80
2013,05,04,04,55,9.70
2013,05,04,04,56,9.50
2013,05,04,04,57,9.40
2013,05,04,04,58,9.30
2013,05,04,04,59,9.20
2013,05,04,05,00,9.00
2013,05,04,05,01,8.90
2013,05,04,05,02,8.80
2013,05,04,05,03,8.70
2013,05,04,05,04,8.60
2013,05,04,05,05,8.60
2013,05,04,05,06,8.50
2013,05,04,05,07,8.40
2013,05,04,05,08,8.30
2013,05,04,05,09,8.30
2013,05,04,05,10,8.20
2013,05,04,05,11,8.10
2013,05,04,05,12,8.10
2013,05,04,05,13,8.10
2013,05,04,05,14,8.00
2013,05,04,05,15,8.00
2013,05,04,05,16,7.90
2013,05,04,05,17,7.90
2013,05,04,05,18,7.90
2013,05,04,05,19,7.80
2013,05,04,05,20,7.80
2013,05,04,05,21,7.80
2013,05,04,05,22,7.80
2013,05,04,05,23,7.70
2013,05,04,05,24,7.70
2013,05,04,05,25,7.70
2013,05,04,05,26,7.70
2013,05,04,05,27,7.60
2013,05,04,05,28,7.70
2013,05,04,05,29,7.70
2013,05,04,05,30,7.80
2013,05,04,05,31,7.90
2013,05,04,05,32,8.00
2013,05,04,05,33,8.10
2013,05,04,05,34,8.20
2013,05,04,05,35,8.30
2013,05,04,05,36,8.30
2013,05,04,05,37,8.40
2013,05,04,05,38,8.50
2013,05,04,05,39,8.50
2013,05,04,05,40,8.60
2013,05,04,05,41,8.70
2013,05,04,05,42,8.70
2013,05,04,05,43,8.80
2013,05,04,05,44,8.90
2013,05,04,05,45,8.90
2013,05,04,05,46,9.00
2013,05,04,05,47,9.10
2013,05,04,05,48,9.10
2013,05,04,05,49,9.10
2013,05,04,05,50,9.10
2013,05,04,05,51,9.00
2013,05,04,05,52,9.00
2013,05,04,05,53,9.00
2013,05,04,05,54,8.90
2013,05,04,05,55,8.90
2013,05,04,05,56,8.90
2013,05,04,05,57,8.90
2013,05,04,05,58,8.90
2013,05,04,05,59,8.90
2013,05,04,06,00,9.00
2013,05,04,06,01,9.00
2013,05,04,06,02,9.10
2013,05,04,06,03,9.10
2013,05,04,06,04,9.20
2013,05,04,06,05,9.20
2013,05,04,06,06,9.30
2013,05,04,06,07,9.30
2013,05,04,06,08,9.30
2013,05,04,06,09,9.30
2013,05,04,06,10,9.30
2013,05,04,06,11,9.30
2013,05,04,06,12,9.30
2013,05,04,06,13,9.20
2013,05,04,06,14,9.20
2013,05,04,06,15,9.10
2013,05,04,06,16,9.00
2013,05,04,06,17,8.90
2013,05,04,06,18,8.90
2013,05,04,06,19,8.80
2013,05,04,06,20,8.70
2013,05,04,06,21,8.70
2013,05,04,06,22,8.60
2013,05,04,06,23,8.60
2013,05,04,06,24,8.50
2013,05,04,06,25,8.50
2013,05,04,06,26,8.50
2013,05,04,06,27,8.40
2013,05,04,06,28,8.40
2013,05,04,06,29,8.40
2013,05,04,06,30,8.40
2013,05,04,06,31,8.40
2013,05,04,06,32,8.40
2013,05,04,06,33,8.40
2013,05,04,06,34,8.40
2013,05,04,06,35,8.40
2013,05,04,06,36,8.40
2013,05,04,06,37,8.40
2013,05,04,06,38,8.50
2013,05,04,06,39,8.50
2013,05,04,06,40,8.40
2013,05,04,06,41,8.50
2013,05,04,06,42,8.50
2013,05,04,06,43,8.50
2013,05,04,06,44,8.60
2013,05,04,06,45,8.60
2013,05,04,06,46,8.60
2013,05,04,06,47,8.60
2013,05,04,06,48,8.60
2013,05,04,06,49,8.70
2013,05,04,06,50,8.70
2013,05,04,06,51,8.70
2013,05,04,06,52,8.70
2013,05,04,06,53,8.80
2013,05,04,06,54,8.90
2013,05,04,06,55,8.90
2013,05,04,06,56,9.00
2013,05,04,06,57,9.10
2013,05,04,06,58,9.10
2013,05,04,06,59,9.20
2013,05,04,07,00,9.30
2013,05,04,07,01,9.40
2013,05,04,07,02,9.40
2013,05,04,07,03,9.50
2013,05,04,07,04,9.60
2013,05,04,07,05,9.70
2013,05,04,07,06,9.80
2013,05,04,07,07,9.90
2013,05,04,07,08,10.00
2013,05,04,07,09,10.10
2013,05,04,07,10,10.20
2013,05,04,07,11,10.20
2013,05,04,07,12,10.30
2013,05,04,07,13,10.30
2013,05,04,07,14,10.40
2013,05,04,07,15,10.50
2013,05,04,07,16,10.60
2013,05,04,07,17,10.60
2013,05,04,07,18,10.70
2013,05,04,07,19,10.80
2013,05,04,07,20,10.90
2013,05,04,07,21,11.00
2013,05,04,07,22,11.10
2013,05,04,07,23,11.20
2013,05,04,07,24,11.30
2013,05,04,07,25,11.40
2013,05,04,07,26,11.50
2013,05,04,07,27,11.60
2013,05,04,07,28,11.60
2013,05,04,07,29,11.70
2013,05,04,07,30,11.80
2013,05,04,07,31,11.90
2013,05,04,07,32,12.00
2013,05,04,07,33,12.10
2013,05,04,07,34,12.10
2013,05,04,07,35,12.20
2013,05,04,07,36,12.30
2013,05,04,07,37,12.40
2013,05,04,07,38,12.50
2013,05,04,07,39,12.50
2013,05,04,07,40,12.60
2013,05,04,07,41,12.70
2013,05,04,07,42,12.80
2013,05,04,07,43,12.80
2013,05,04,07,44,12.80
2013,05,04,07,45,12.90
2013,05,04,07,46,12.90
2013,05,04,07,47,12.90
2013,05,04,07,48,13.00
2013,05,04,07,49,13.00
2013,05,04,07,50,13.00
2013,05,04,07,51,13.10
2013,05,04,07,52,13.10
2013,05,04,07,53,13.20
2013,05,04,07,54,13.20
2013,05,04,07,55,13.20
2013,05,04,07,56,13.20
2013,05,04,07,57,13.30
2013,05,04,07,58,13.30
2013,05,04,07,59,13.30
2013,05,04,08,00,13.30
2013,05,04,08,01,13.30
2013,05,04,08,02,13.40
2013,05,04,08,03,13.40
2013,05,04,08,04,13.40
2013,05,04,08,05,13.40
2013,05,04,08,06,13.40
2013,05,04,08,07,13.40
2013,05,04,08,08,13.40
2013,05,04,08,09,13.40
2013,05,04,08,10,13.40
2013,05,04,08,11,13.30
2013,05,04,08,12,13.30
2013,05,04,08,13,13.30
2013,05,04,08,14,13.30
2013,05,04,08,15,13.30
2013,05,04,08,16,13.30
2013,05,04,08,17,13.30
2013,05,04,08,18,13.30
2013,05,04,08,19,13.40
2013,05,04,08,20,13.40
2013,05,04,08,21,13.40
2013,05,04,08,22,13.40
2013,05,04,08,23,13.40
2013,05,04,08,24,13.40
2013,05,04,08,25,13.40
2013,05,04,08,26,13.30
2013,05,04,08,27,13.30
2013,05,04,08,28,13.30
2013,05,04,08,29,13.20
2013,05,04,08,30,13.20
2013,05,04,08,31,13.20
2013,05,04,08,32,13.20
2013,05,04,08,33,13.20
2013,05,04,08,34,13.20
2013,05,04,08,35,13.20
2013,05,04,08,36,13.30
2013,05,04,08,37,13.30
2013,05,04,08,38,13.30
2013,05,04,08,39,13.30
2013,05,04,08,40,13.30
2013,05,04,08,41,13.30
2013,05,04,08,42,13.30
2013,05,04,08,43,13.30
2013,05,04,08,44,13.30
2013,05,04,08,45,13.30
2013,05,04,08,46,13.30
2013,05,04,08,47,13.40
2013,05,04,08,48,13.40
2013,05,04,08,49,13.40
2013,05,04,08,50,13.40
2013,05,04,08,51,13.50
2013,05,04,08,52,13.50
2013,05,04,08,53,13.60
2013,05,04,08,54,13.60
2013,05,04,08,55,13.60
2013,05,04,08,56,13.60
2013,05,04,08,57,13.50
2013,05,04,08,58,13.50
2013,05,04,08,59,13.50
2013,05,04,09,00,13.50
2013,05,04,09,01,13.50
2013,05,04,09,02,13.50
2013,05,04,09,03,13.50
2013,05,04,09,04,13.60
2013,05,04,09,05,13.50
2013,05,04,09,06,13.50
2013,05,04,09,07,13.40
2013,05,04,09,08,13.40
2013,05,04,09,09,13.30
2013,05,04,09,10,13.30
2013,05,04,09,11,13.20
2013,05,04,09,12,13.20
2013,05,04,09,13,13.20
2013,05,04,09,14,13.20
2013,05,04,09,15,13.20
2013,05,04,09,16,13.30
2013,05,04,09,17,13.30
2013,05,04,09,18,13.30
2013,05,04,09,19,13.40
2013,05,04,09,20,13.50
2013,05,04,09,21,13.50
2013,05,04,09,22,13.50
2013,05,04,09,23,13.50
2013,05,04,09,24,13.40
2013,05,04,09,25,13.40
2013,05,04,09,26,13.40
2013,05,04,09,27,13.40
2013,05,04,09,28,13.40
2013,05,04,09,29,13.40
2013,05,04,09,30,13.40
2013,05,04,09,31,13.40
2013,05,04,09,32,13.40
2013,05,04,09,33,13.40
2013,05,04,09,34,13.50
2013,05,04,09,35,13.50
2013,05,04,09,36,13.60
2013,05,04,09,37,13.60
2013,05,04,09,38,13.60
2013,05,04,09,39,13.60
2013,05,04,09,40,13.60
2013,05,04,09,41,13.70
2013,05,04,09,42,13.70
2013,05,04,09,43,13.80
2013,05,04,09,44,13.80
2013,05,04,09,45,13.80
2013,05,04,09,46,13.80
2013,05,04,09,47,13.80
2013,05,04,09,48,13.80
2013,05,04,09,49,13.80
2013,05,04,09,50,13.80
2013,05,04,09,51,13.80
2013,05,04,09,52,13.80
2013,05,04,09,53,13.80
2013,05,04,09,54,13.80
2013,05,04,09,55,13.90
2013,05,04,09,56,13.90
2013,05,04,09,57,13.90
2013,05,04,09,58,13.90
2013,05,04,09,59,14.00
2013,05,04,10,00,14.00
2013,05,04,10,01,14.10
2013,05,04,10,02,14.10
2013,05,04,10,03,14.20
2013,05,04,10,04,14.30
2013,05,04,10,05,14.30
2013,05,04,10,06,14.30
2013,05,04,10,07,14.40
2013,05,04,10,08,14.40
2013,05,04,10,09,14.40
2013,05,04,10,10,14.20
2013,05,04,10,11,14.10
2013,05,04,10,12,14.00
2013,05,04,10,13,13.90
2013,05,04,10,14,13.70
2013,05,04,10,15,13.60
2013,05,04,10,16,13.50
2013,05,04,10,17,13.40
2013,05,04,10,18,13.30
2013,05,04,10,19,13.20
2013,05,04,10,20,13.10
2013,05,04,10,21,13.00
2013,05,04,10,22,12.90
2013,05,04,10,23,12.80
2013,05,04,10,24,12.70
2013,05,04,10,25,12.70
2013,05,04,10,26,12.60
2013,05,04,10,27,12.50
2013,05,04,10,28,12.50
2013,05,04,10,29,12.50
2013,05,04,10,30,12.40
2013,05,04,10,31,12.40
2013,05,04,10,32,12.40
2013,05,04,10,33,12.30
2013,05,04,10,34,12.30
2013,05,04,10,35,12.40
2013,05,04,10,36,12.40
2013,05,04,10,37,12.40
2013,05,04,10,38,12.30
2013,05,04,10,39,12.30
2013,05,04,10,40,12.30
2013,05,04,10,41,12.30
2013,05,04,10,42,12.40
2013,05,04,10,43,12.40
2013,05,04,10,44,12.40
2013,05,04,10,45,12.50
2013,05,04,10,46,12.60
2013,05,04,10,47,12.60
2013,05,04,10,48,12.70
2013,05,04,10,49,12.80
2013,05,04,10,50,12.80
2013,05,04,10,51,12.80
2013,05,04,10,52,12.80
2013,05,04,10,53,12.80
2013,05,04,10,54,12.80
2013,05,04,10,55,12.90
2013,05,04,10,56,12.90
2013,05,04,10,57,12.90
2013,05,04,10,58,13.00
2013,05,04,10,59,13.00
2013,05,04,11,00,13.10
2013,05,04,11,01,13.10
2013,05,04,11,02,13.10
2013,05,04,11,03,13.10
2013,05,04,11,04,13.10
2013,05,04,11,05,13.20
2013,05,04,11,06,13.20
2013,05,04,11,07,13.30
2013,05,04,11,08,13.40
2013,05,04,11,09,13.50
2013,05,04,11,10,13.60
2013,05,04,11,11,13.70
2013,05,04,11,12,13.90
2013,05,04,11,13,13.90
2013,05,04,11,14,14.00
2013,05,04,11,15,14.10
2013,05,04,11,16,14.10
2013,05,04,11,17,14.20
2013,05,04,11,18,14.20
2013,05,04,11,19,14.30
2013,05,04,11,20,14.40
2013,05,04,11,21,14.40
2013,05,04,11,22,14.50
2013,05,04,11,23,14.40
2013,05,04,11,24,14.40
2013,05,04,11,25,14.30
2013,05,04,11,26,14.30
2013,05,04,11,27,14.20
2013,05,04,11,28,14.20
2013,05,04,11,29,14.20
2013,05,04,11,30,14.20
2013,05,04,11,31,14.20
2013,05,04,11,32,14.10
2013,05,04,11,33,14.00
2013,05,04,11,34,14.10
2013,05,04,11,35,14.10
2013,05,04,11,36,14.20
2013,05,04,11,37,14.20
2013,05,04,11,38,14.10
2013,05,04,11,39,14.10
2013,05,04,11,40,14.10
2013,05,04,11,41,14.10
2013,05,04,11,42,14.10
2013,05,04,11,43,14.10
2013,05,04,11,44,14.10
2013,05,04,11,45,14.00
2013,05,04,11,46,14.00
2013,05,04,11,47,14.00
2013,05,04,11,48,14.00
2013,05,04,11,49,14.00
2013,05,04,11,50,14.00
2013,05,04,11,51,13.90
2013,05,04,11,52,14.00
2013,05,04,11,53,13.90
2013,05,04,11,54,13.90
2013,05,04,11,55,13.90
2013,05,04,11,56,13.80
2013,05,04,11,57,13.80
2013,05,04,11,58,13.80
2013,05,04,11,59,13.80
2013,05,04,12,00,13.80
2013,05,04,12,01,13.90
2013,05,04,12,02,13.90
2013,05,04,12,03,14.00
2013,05,04,12,04,14.00
2013,05,04,12,05,14.10
2013,05,04,12,06,14.10
2013,05,04,12,07,14.10
2013,05,04,12,08,14.20
2013,05,04,12,09,14.30
2013,05,04,12,10,14.30
2013,05,04,12,11,14.50
2013,05,04,12,12,14.60
2013,05,04,12,13,14.70
2013,05,04,12,14,14.70
2013,05,04,12,15,14.80
2013,05,04,12,16,14.80
2013,05,04,12,17,14.80
2013,05,04,12,18,14.90
2013,05,04,12,19,15.00
2013,05,04,12,20,14.90
2013,05,04,12,21,15.00
2013,05,04,12,22,15.00
2013,05,04,12,23,15.00
2013,05,04,12,24,15.00
2013,05,04,12,25,15.00
2013,05,04,12,26,14.90
2013,05,04,12,27,14.80
2013,05,04,12,28,14.80
2013,05,04,12,29,14.80
2013,05,04,12,30,14.80
2013,05,04,12,31,14.70
2013,05,04,12,32,14.60
2013,05,04,12,33,14.60
2013,05,04,12,34,14.60
2013,05,04,12,35,14.60
2013,05,04,12,36,14.60
2013,05,04,12,37,14.60
2013,05,04,12,38,14.60
2013,05,04,12,39,14.60
2013,05,04,12,40,14.70
2013,05,04,12,41,14.70
2013,05,04,12,42,14.60
2013,05,04,12,43,14.60
2013,05,04,12,44,14.50
2013,05,04,12,45,14.50
2013,05,04,12,46,14.50
2013,05,04,12,47,14.40
2013,05,04,12,48,14.40
2013,05,04,12,49,14.50
2013,05,04,12,50,14.60
2013,05,04,12,51,14.60
2013,05,04,12,52,14.60
2013,05,04,12,53,14.60
2013,05,04,12,54,14.60
2013,05,04,12,55,14.70
2013,05,04,12,56,14.70
2013,05,04,12,57,14.70
2013,05,04,12,58,14.80
2013,05,04,12,59,14.80
2013,05,04,13,00,14.80
2013,05,04,13,01,14.80
2013,05,04,13,02,14.90
2013,05,04,13,03,14.90
2013,05,04,13,04,14.90
2013,05,04,13,05,14.90
2013,05,04,13,06,14.90
2013,05,04,13,07,14.90
2013,05,04,13,08,14.90
2013,05,04,13,09,15.00
2013,05,04,13,10,15.10
2013,05,04,13,11,15.10
2013,05,04,13,12,15.00
2013,05,04,13,13,14.90
2013,05,04,13,14,15.00
2013,05,04,13,15,15.00
2013,05,04,13,16,15.20
2013,05,04,13,17,15.30
2013,05,04,13,18,15.40
2013,05,04,13,19,15.50
2013,05,04,13,20,15.60
2013,05,04,13,21,15.70
2013,05,04,13,22,15.70
2013,05,04,13,23,15.70
2013,05,04,13,24,15.70
2013,05,04,13,25,15.80
2013,05,04,13,26,15.80
2013,05,04,13,27,15.80
2013,05,04,13,28,15.90
2013,05,04,13,29,16.00
2013,05,04,13,30,16.00
2013,05,04,13,31,16.10
2013,05,04,13,32,16.10
2013,05,04,13,33,16.10
2013,05,04,13,34,16.00
2013,05,04,13,35,16.10
2013,05,04,13,36,16.10
2013,05,04,13,37,16.10
2013,05,04,13,38,16.10
2013,05,04,13,39,16.20
2013,05,04,13,40,16.30
2013,05,04,13,41,16.30
2013,05,04,13,42,16.30
2013,05,04,13,43,16.30
2013,05,04,13,44,16.30
2013,05,04,13,45,16.30
2013,05,04,13,46,16.30
2013,05,04,13,47,16.40
2013,05,04,13,48,16.40
2013,05,04,13,49,16.30
2013,05,04,13,50,16.30
2013,05,04,13,51,16.30
2013,05,04,13,52,16.30
2013,05,04,13,53,16.30
2013,05,04,13,54,16.30
2013,05,04,13,55,16.40
2013,05,04,13,56,16.40
2013,05,04,13,57,16.40
2013,05,04,13,58,16.50
2013,05,04,13,59,16.40
2013,05,04,14,00,16.40
2013,05,04,14,01,16.40
2013,05,04,14,02,16.40
2013,05,04,14,03,16.40
2013,05,04,14,04,16.40
2013,05,04,14,05,16.40
2013,05,04,14,06,16.50
2013,05,04,14,07,16.60
2013,05,04,14,08,16.70
2013,05,04,14,09,16.80
2013,05,04,14,10,16.90
2013,05,04,14,11,16.90
2013,05,04,14,12,16.90
2013,05,04,14,13,16.90
2013,05,04,14,14,16.90
2013,05,04,14,15,16.90
2013,05,04,14,16,16.80
2013,05,04,14,17,16.80
2013,05,04,14,18,16.90
2013,05,04,14,19,16.90
2013,05,04,14,20,16.90
2013,05,04,14,21,17.00
2013,05,04,14,22,17.10
2013,05,04,14,23,17.10
2013,05,04,14,24,17.10
2013,05,04,14,25,17.20
2013,05,04,14,26,17.30
2013,05,04,14,27,17.30
2013,05,04,14,28,17.30
2013,05,04,14,29,17.30
2013,05,04,14,30,17.40
2013,05,04,14,31,17.40
2013,05,04,14,32,17.40
2013,05,04,14,33,17.40
2013,05,04,14,34,17.40
2013,05,04,14,35,17.50
2013,05,04,14,36,17.50
2013,05,04,14,37,17.50
2013,05,04,14,38,17.50
2013,05,04,14,39,17.50
2013,05,04,14,40,17.40
2013,05,04,14,41,17.40
2013,05,04,14,42,17.40
2013,05,04,14,43,17.50
2013,05,04,14,44,17.50
2013,05,04,14,45,17.60
2013,05,04,14,46,17.60
2013,05,04,14,47,17.60
2013,05,04,14,48,17.60
2013,05,04,14,49,17.60
2013,05,04,14,50,17.60
2013,05,04,14,51,17.60
2013,05,04,14,52,17.60
2013,05,04,14,53,17.60
2013,05,04,14,54,17.70
2013,05,04,14,55,17.70
2013,05,04,14,56,17.80
2013,05,04,14,57,17.90
2013,05,04,14,58,18.00
2013,05,04,14,59,18.00
2013,05,04,15,00,18.00
2013,05,04,15,01,18.00
2013,05,04,15,02,18.00
2013,05,04,15,03,18.00
2013,05,04,15,04,18.10
2013,05,04,15,05,18.20
2013,05,04,15,06,18.20
2013,05,04,15,07,18.20
2013,05,04,15,08,18.20
2013,05,04,15,09,18.20
2013,05,04,15,10,18.10
2013,05,04,15,11,18.10
2013,05,04,15,12,18.10
2013,05,04,15,13,18.10
2013,05,04,15,14,18.10
2013,05,04,15,15,18.20
2013,05,04,15,16,18.20
2013,05,04,15,17,18.30
2013,05,04,15,18,18.40
2013,05,04,15,19,18.40
2013,05,04,15,20,18.40
2013,05,04,15,21,18.50
2013,05,04,15,22,18.50
2013,05,04,15,23,18.60
2013,05,04,15,24,18.60
2013,05,04,15,25,18.60
2013,05,04,15,26,18.50
2013,05,04,15,27,18.50
2013,05,04,15,28,18.50
2013,05,04,15,29,18.50
2013,05,04,15,30,18.60
2013,05,04,15,31,18.60
2013,05,04,15,32,18.70
2013,05,04,15,33,18.80
2013,05,04,15,34,18.90
2013,05,04,15,35,18.90
2013,05,04,15,36,19.00
2013,05,04,15,37,19.00
2013,05,04,15,38,18.90
2013,05,04,15,39,18.90
2013,05,04,15,40,18.90
2013,05,04,15,41,18.90
2013,05,04,15,42,18.90
2013,05,04,15,43,18.90
2013,05,04,15,44,18.90
2013,05,04,15,45,18.90
2013,05,04,15,46,19.00
2013,05,04,15,47,19.10
2013,05,04,15,48,19.20
2013,05,04,15,49,19.30
2013,05,04,15,50,19.40
2013,05,04,15,51,19.40
2013,05,04,15,52,19.50
2013,05,04,15,53,19.50
2013,05,04,15,54,19.60
2013,05,04,15,55,19.70
2013,05,04,15,56,19.70
2013,05,04,15,57,19.80
2013,05,04,15,58,19.90
2013,05,04,15,59,20.10
2013,05,04,16,00,20.20
2013,05,04,16,01,20.30
2013,05,04,16,02,20.40
2013,05,04,16,03,20.50
2013,05,04,16,04,20.60
2013,05,04,16,05,20.60
2013,05,04,16,06,20.60
2013,05,04,16,07,20.60
2013,05,04,16,08,20.60
2013,05,04,16,09,20.60
2013,05,04,16,10,20.60
2013,05,04,16,11,20.60
2013,05,04,16,12,20.60
2013,05,04,16,13,20.60
2013,05,04,16,14,20.60
2013,05,04,16,15,20.60
2013,05,04,16,16,20.70
2013,05,04,16,17,20.80
2013,05,04,16,18,20.90
2013,05,04,16,19,21.00
2013,05,04,16,20,21.10
2013,05,04,16,21,21.20
2013,05,04,16,22,21.20
2013,05,04,16,23,21.20
2013,05,04,16,24,21.20
2013,05,04,16,25,21.20
2013,05,04,16,26,21.20
2013,05,04,16,27,21.30
2013,05,04,16,28,21.40
2013,05,04,16,29,21.50
2013,05,04,16,30,21.50
2013,05,04,16,31,21.50
2013,05,04,16,32,21.40
2013,05,04,16,33,21.40
2013,05,04,16,34,21.40
2013,05,04,16,35,21.40
2013,05,04,16,36,21.50
2013,05,04,16,37,21.50
2013,05,04,16,38,21.50
2013,05,04,16,39,21.40
2013,05,04,16,40,21.40
2013,05,04,16,41,21.40
2013,05,04,16,42,21.40
2013,05,04,16,43,21.50
2013,05,04,16,44,21.60
2013,05,04,16,45,21.70
2013,05,04,16,46,21.70
2013,05,04,16,47,21.80
2013,05,04,16,48,21.80
2013,05,04,16,49,21.80
2013,05,04,16,50,21.80
2013,05,04,16,51,21.80
2013,05,04,16,52,21.80
2013,05,04,16,53,21.80
2013,05,04,16,54,21.80
2013,05,04,16,55,21.80
2013,05,04,16,56,21.70
2013,05,04,16,57,21.70
2013,05,04,16,58,21.60
2013,05,04,16,59,21.60
2013,05,04,17,00,21.60
2013,05,04,17,01,21.60
2013,05,04,17,02,21.60
2013,05,04,17,03,21.70
2013,05,04,17,04,21.80
2013,05,04,17,05,21.90
2013,05,04,17,06,21.90
2013,05,04,17,07,22.00
2013,05,04,17,08,22.10
2013,05,04,17,09,22.20
2013,05,04,17,10,22.30
2013,05,04,17,11,22.40
2013,05,04,17,12,22.40
2013,05,04,17,13,22.40
2013,05,04,17,14,22.40
2013,05,04,17,15,22.40
2013,05,04,17,16,22.30
2013,05,04,17,17,22.30
2013,05,04,17,18,22.30
2013,05,04,17,19,22.20
2013,05,04,17,20,22.20
2013,05,04,17,21,22.10
2013,05,04,17,22,22.10
2013,05,04,17,23,22.10
2013,05,04,17,24,22.10
2013,05,04,17,25,22.10
2013,05,04,17,26,22.10